Tracking 22780 objects as of 11-Apr-2021
HD Live streaming from Space Station
objects crossing your sky now

GARUDA 1

Track GARUDA 1 now!
GARUDA 1 is classified as:


NORAD ID: 26089
Int'l Code: 2000-011A
Perigee: 35,870.6 km
Apogee: 35,924.0 km
Inclination: 5.0 °
Period: 1,441.4 minutes
Semi major axis: 42268 km
RCS: 16.0243 m2 (large)
Launch date: February 12, 2000
Source: Indonesia (INDO)
Launch site: TYURATAM MISSILE AND SPACE COMPLEX (TTMTR)

L-band; mobile telephone communications.
aabbcc
Your satellite tracking list
Your tracking list is empty




NASA's NSSDC Master Catalog

Two Line Element Set (TLE):
1 26089U 00011A   21100.59655543  .00000116  00000-0  00000-0 0  9991
2 26089   4.9637  87.3403 0006309 304.1269  76.3610  0.99903521 22740
Source of the keplerian elements: AFSPC